[[{"header":{"parameterUnit":"m.s-1","parameterCategory":2,"la1":30.2991,"la2":30.254,"lo1":-89.0895,"lo2":-89.0444,"dy":0.0017,"dx":0.0017,"nx":28,"ny":28,"refTime":"2025-02-04T03:00:00:Z","depth":"0","parameterNumber":2,"parameterNumberName":"U-component_of_CURRENTS"},"data":[0,0,0,0,0,0,0,0,0,0,0,0,0,0,0,0,0,0,0,0,0,0,0,0,0,0,0,0,0,0,0,0,0,0,0,0,0,0,0,0,0,0,0,0,0,0,0,0,0,0,0,0,0,0,0,0,0,0,-0.2121,-0.2121,0,-0.2114,-0.2114,-0.2114,-0.2089,-0.2088,-0.2088,-0.2088,-0.2027,-0.2025,-0.2024,0,0,0,0,0,0,0,0,0,0,0,0,0,-0.2132,-0.2132,-0.2121,-0.2121,-0.2121,-0.2114,-0.2114,-0.2114,-0.2089,-0.2088,-0.2088,-0.2087,-0.2027,-0.2025,-0.2024,0,0,0,0,0,0,0,0,0,0,0,0,0,-0.2124,-0.2132,-0.2121,-0.211,-0.2109,-0.2114,-0.2114,-0.2114,-0.2089,-0.2088,-0.2088,-0.2087,-0.2028,-0.2026,-0.2024,-0.2022,0,0,-0.2018,-0.2017,0,0,0,0,0,0,0,0,-0.2125,-0.2123,-0.2111,-0.211,-0.2109,-0.2104,-0.2096,-0.2081,-0.2089,-0.2094,-0.2088,-0.2087,-0.2049,-0.2046,-0.2043,-0.2019,-0.2016,-0.2018,-0.2016,-0.2015,-0.2015,0,0,0,0,0,0,0,-0.2125,-0.2124,-0.2116,-0.2111,-0.211,-0.2112,-0.211,-0.2093,-0.2071,-0.2093,-0.2092,-0.2096,-0.2048,-0.2045,-0.2041,-0.2015,-0.2018,-0.2016,-0.2015,-0.2014,-0.1999,-0.2,0,0,0,0,0,0,-0.2131,-0.2124,-0.2116,-0.2116,-0.2119,-0.2113,-0.211,-0.2104,-0.2073,-0.2069,-0.2096,-0.2094,-0.2048,-0.2043,-0.2039,-0.2047,-0.2016,-0.2014,-0.2013,-0.1998,-0.1999,-0.2,0,0,0,0,0,0,-0.2131,-0.2129,-0.2116,-0.2122,-0.2121,-0.2113,-0.2107,-0.2104,-0.2101,-0.2076,-0.207,-0.2095,-0.2048,-0.2041,-0.2035,-0.2044,-0.2013,-0.2011,-0.1997,-0.1999,-0.2,-0.2056,0,0,0,0,0,0,-0.2131,-0.2129,-0.2127,-0.2122,-0.2121,-0.213,-0.2107,-0.2105,-0.2105,-0.2103,-0.2073,-0.2067,-0.2047,-0.2038,-0.2033,-0.2041,-0.2009,-0.1996,-0.1998,-0.1999,-0.2053,-0.2059,-0.2064,0,0,0,0,0,-0.2131,-0.2134,-0.2126,-0.2126,-0.2117,-0.2131,-0.2131,-0.2122,-0.2106,-0.2114,-0.2094,-0.2068,-0.2043,-0.2037,-0.2031,-0.2038,-0.1996,-0.1997,-0.1999,-0.205,-0.2058,-0.2063,0,0,0,0,0,0,-0.2142,-0.2132,-0.2123,-0.2124,-0.2131,-0.2128,-0.2131,-0.2125,-0.2116,-0.2108,-0.2079,-0.2072,-0.2067,-0.2049,-0.2043,-0.2039,-0.2015,-0.2015,-0.2056,-0.2062,-0.2068,-0.208,-0.2008,0,0,0,0,0,-0.2142,-0.2137,-0.2138,-0.2139,-0.2141,-0.2135,-0.2137,-0.2135,-0.2128,-0.2123,-0.2104,-0.2083,-0.207,-0.2064,-0.2047,-0.2048,-0.2043,-0.2049,-0.2054,-0.2059,-0.2065,-0.2073,-0.208,-0.2006,-0.2006,-0.2006,0,0,-0.2146,-0.2141,-0.2138,-0.2141,-0.2138,-0.2156,-0.2134,-0.2144,-0.216,-0.2118,-0.2123,-0.2099,-0.2074,-0.2075,-0.2071,-0.2061,-0.208,-0.2061,-0.2065,-0.2069,-0.2076,-0.2083,-0.209,-0.2007,-0.2007,-0.2007,0,0,-0.2162,-0.2147,-0.2152,-0.2162,-0.2169,-0.2171,-0.2176,-0.2177,-0.2175,-0.2181,-0.2155,-0.2144,-0.212,-0.2113,-0.2103,-0.213,-0.2106,-0.2118,-0.2156,-0.2165,-0.2171,-0.2176,-0.2192,-0.2198,-0.2123,-0.2123,-0.2123,0,-0.2168,-0.2172,-0.216,-0.2176,-0.2189,-0.218,-0.2204,-0.2208,-0.2209,-0.2212,-0.219,-0.2166,-0.2142,-0.215,-0.2157,-0.2142,-0.2143,-0.2133,-0.2172,-0.2177,-0.2182,-0.2196,-0.2203,-0.2126,-0.2126,-0.2126,-0.2125,0,-0.219,-0.2199,-0.2206,-0.2219,-0.2236,-0.2253,-0.2264,-0.2277,-0.2267,-0.2265,-0.2265,-0.2235,-0.2221,-0.2211,-0.2188,-0.2209,-0.2199,-0.2176,-0.2157,-0.2193,-0.2206,-0.2211,-0.213,-0.2129,-0.2128,-0.2128,0,0,-0.2182,-0.2214,-0.2215,-0.2234,-0.2259,-0.2275,-0.2309,-0.2334,-0.2356,-0.234,-0.2358,-0.233,-0.2304,-0.2292,-0.2263,-0.2268,-0.2299,-0.2237,-0.2236,-0.2256,-0.2325,-0.2328,-0.2334,-0.2281,-0.2282,-0.2283,-0.2324,0,-0.22,-0.224,-0.2253,-0.2298,-0.2319,-0.2337,-0.2373,-0.2396,-0.2401,-0.2419,-0.2389,-0.2385,-0.2339,-0.2328,-0.2327,-0.2299,-0.2314,-0.229,-0.2284,-0.2284,-0.2285,-0.2341,-0.2231,-0.226,-0.233,-0.233,-0.2331,0,-0.2209,-0.2236,-0.2282,-0.2338,-0.2349,-0.2378,-0.2429,-0.2461,-0.2488,-0.2491,-0.2486,-0.2459,-0.2454,-0.2408,-0.2396,-0.2381,-0.2363,-0.2344,-0.2345,-0.2332,-0.2298,-0.2233,-0.2267,-0.215,-0.2339,-0.2339,-0.2338,0,-0.2195,-0.2253,-0.2289,-0.2307,-0.2372,-0.2397,-0.2428,-0.2472,-0.2505,-0.2529,-0.2549,-0.2533,-0.2524,-0.2497,-0.2451,-0.2425,-0.2445,-0.2405,-0.24,-0.24,-0.2298,-0.2288,-0.2219,-0.2418,-0.2418,-0.2417,-0.2417,0,-0.2198,-0.2223,-0.2284,-0.2301,-0.2354,-0.2395,-0.2447,-0.2483,-0.2535,-0.2581,-0.2573,-0.2602,-0.2545,-0.2543,-0.2492,-0.2471,-0.2481,-0.2425,-0.2417,-0.2316,-0.2307,-0.2193,-0.2189,-0.2419,-0.2419,-0.2418,-0.2418,0,-0.2159,-0.2205,-0.2248,-0.2319,-0.2345,-0.2372,-0.2453,-0.2494,-0.2548,-0.261,-0.2618,-0.2655,-0.2662,-0.2621,-0.2589,-0.2533,-0.2449,-0.2498,-0.2391,-0.237,-0.2248,-0.2254,-0.2272,-0.2206,-0.2498,-0.2498,-0.2499,0,-0.2138,-0.2156,-0.2241,-0.2274,-0.23,-0.2354,-0.2402,-0.2481,-0.2531,-0.2644,-0.2674,-0.2716,-0.2748,-0.2718,-0.2633,-0.2578,-0.2486,-0.2429,-0.2362,-0.2247,-0.2246,-0.2257,-0.2199,-0.2248,-0.2247,-0.2245,-0.2244,0,-0.2085,-0.2115,-0.2152,-0.2222,-0.2275,-0.2342,-0.2411,-0.246,-0.2566,-0.2636,-0.2734,-0.2777,-0.2788,-0.2684,-0.2614,-0.2549,-0.2337,-0.2402,-0.2292,-0.2072,-0.2069,-0.1996,-0.2225,-0.2232,-0.2233,-0.2234,-0.2235,-0.2235,-0.2031,-0.204,-0.2093,-0.2146,-0.2225,-0.2296,-0.23,-0.2412,-0.2494,-0.2563,-0.2696,-0.2689,-0.2632,-0.2537,-0.2469,-0.2221,-0.2323,-0.2083,-0.2109,-0.2137,-0.2045,-0.2271,-0.2265,-0.2266,-0.2267,-0.2268,-0.2269,0,-0.1942,-0.1962,-0.2013,-0.2074,-0.2119,-0.2187,-0.2277,-0.2271,-0.2331,-0.2408,-0.2482,-0.2429,-0.2315,-0.2198,-0.201,-0.1901,-0.1836,-0.1816,-0.1747,-0.1706,-0.1883,-0.1835,-0.1722,-0.1722,-0.1722,-0.1722,-0.1723,-0.1723,-0.1894,-0.1893,-0.1915,-0.1939,-0.1981,-0.1971,-0.1986,-0.2031,-0.2042,-0.2029,-0.1982,-0.2053,-0.1938,-0.1936,-0.1694,-0.1606,-0.1505,-0.1529,-0.1532,-0.1572,-0.1596,-0.1618,-0.1565,-0.1397,-0.1397,-0.1252,-0.1251,-0.125]},{"header":{"parameterUnit":"m.s-1","parameterCategory":2,"la1":30.2991,"la2":30.254,"lo1":-89.0895,"lo2":-89.0444,"dy":0.0017,"dx":0.0017,"nx":28,"ny":28,"refTime":"2025-02-04T03:00:00:Z","depth":"0","parameterNumber":3,"parameterNumberName":"V-component_of_CURRENTS"},"data":[0,0,0,0,0,0,0,0,0,0,0,0,0,0,0,0,0,0,0,0,0,0,0,0,0,0,0,0,0,0,0,0,0,0,0,0,0,0,0,0,0,0,0,0,0,0,0,0,0,0,0,0,0,0,0,0,0,0,0.017,0.0171,0,0.0227,0.0228,0.0229,0.0278,0.0278,0.0278,0.0279,0.0348,0.035,0.0352,0,0,0,0,0,0,0,0,0,0,0,0,0,0.0178,0.0177,0.017,0.0171,0.0171,0.0227,0.0228,0.023,0.0278,0.0278,0.0279,0.0279,0.0348,0.035,0.0352,0,0,0,0,0,0,0,0,0,0,0,0,0,0.0203,0.0177,0.017,0.0198,0.0201,0.0227,0.0228,0.023,0.0278,0.0278,0.0279,0.0279,0.0347,0.0349,0.0352,0.0366,0,0,0.036,0.0361,0,0,0,0,0,0,0,0,0.0201,0.0203,0.0194,0.0196,0.0199,0.0241,0.0256,0.0274,0.0278,0.0254,0.0279,0.0279,0.031,0.0316,0.0333,0.0369,0.0372,0.036,0.0362,0.0363,0.0364,0,0,0,0,0,0,0,0.02,0.0202,0.0198,0.0194,0.0197,0.0233,0.0236,0.0261,0.0285,0.0256,0.0259,0.0257,0.0313,0.0331,0.0335,0.0373,0.036,0.0363,0.0364,0.0365,0.0443,0.0444,0,0,0,0,0,0,0.0178,0.0199,0.0196,0.0199,0.0195,0.0232,0.0236,0.0232,0.0285,0.0291,0.0257,0.0259,0.0326,0.0332,0.0338,0.0346,0.0363,0.0366,0.0367,0.0443,0.0443,0.0444,0,0,0,0,0,0,0.0178,0.0177,0.0194,0.0197,0.0201,0.023,0.0226,0.0233,0.0247,0.0284,0.0292,0.0263,0.0326,0.0334,0.0367,0.0349,0.0367,0.0369,0.0442,0.0443,0.0444,0.0369,0,0,0,0,0,0,0.0178,0.0177,0.017,0.0195,0.02,0.0197,0.0226,0.0234,0.0244,0.0247,0.0292,0.0299,0.0327,0.0363,0.0369,0.0353,0.0371,0.0442,0.0443,0.0443,0.0371,0.0367,0.0364,0,0,0,0,0,0.0178,0.016,0.0169,0.0169,0.0188,0.0196,0.0202,0.0228,0.0244,0.0244,0.0286,0.0297,0.0373,0.0365,0.0373,0.0357,0.0441,0.0442,0.0443,0.0373,0.0368,0.0364,0,0,0,0,0,0,0.0157,0.0164,0.0174,0.0159,0.0171,0.0202,0.0201,0.0222,0.0257,0.0264,0.0305,0.0315,0.0334,0.0365,0.0355,0.0386,0.0408,0.0411,0.0351,0.0347,0.0344,0.0336,0.0374,0,0,0,0,0,0.0148,0.0139,0.0153,0.0141,0.0143,0.0174,0.0181,0.0199,0.0229,0.0244,0.0276,0.0316,0.0346,0.0361,0.0392,0.041,0.0441,0.0407,0.0403,0.04,0.0402,0.0443,0.0443,0.0447,0.0447,0.0447,0,0,0.0135,0.0138,0.0133,0.0136,0.015,0.0146,0.018,0.0184,0.0188,0.0246,0.0264,0.0301,0.035,0.0369,0.038,0.0391,0.0414,0.0401,0.0398,0.0402,0.0444,0.0444,0.0443,0.0448,0.0448,0.0448,0,0,0.0101,0.0108,0.0088,0.0096,0.0106,0.0124,0.012,0.0148,0.0167,0.0191,0.0233,0.0268,0.031,0.0344,0.0366,0.0366,0.0392,0.0369,0.0343,0.0382,0.0382,0.0382,0.0405,0.0408,0.0368,0.0368,0.0368,0,0.0084,0.0063,0.0084,0.007,0.0071,0.0108,0.0091,0.0115,0.0153,0.0169,0.0185,0.0265,0.0299,0.0333,0.0334,0.0354,0.0378,0.0347,0.0375,0.0376,0.0377,0.0402,0.0406,0.0364,0.0365,0.0365,0.0365,0,0.0036,0.0025,0.0013,0.0008,0.0015,0.0006,0.0035,0.0049,0.0077,0.0108,0.0148,0.0209,0.0257,0.0269,0.03,0.0325,0.0338,0.0361,0.0377,0.0372,0.0399,0.0404,0.0359,0.0361,0.0362,0.0362,0,0,-0.0018,-0.0022,-0.0026,-0.0036,-0.0018,-0.0022,-0.0013,0.0005,0.0016,0.0063,0.0084,0.0144,0.0185,0.0216,0.026,0.0297,0.0319,0.0326,0.033,0.0335,0.0394,0.0368,0.0371,0.0343,0.0344,0.0344,0.0402,0,-0.0064,-0.011,-0.0089,-0.012,-0.0141,-0.0097,-0.0092,-0.0062,-0.0022,0.001,0.0081,0.0119,0.0162,0.0186,0.0229,0.0301,0.0333,0.0301,0.0413,0.0416,0.0381,0.0377,0.0447,0.0502,0.0408,0.0409,0.041,0,-0.0119,-0.0144,-0.0188,-0.0188,-0.0191,-0.0194,-0.0173,-0.016,-0.0097,-0.0063,-0.0003,0.0058,0.0123,0.0161,0.0274,0.025,0.0314,0.0369,0.0373,0.0381,0.04,0.0499,0.0516,0.0677,0.0418,0.0418,0.0417,0,-0.0181,-0.0207,-0.0247,-0.0249,-0.0244,-0.0245,-0.0234,-0.0184,-0.0175,-0.0103,-0.0085,0.0011,0.0058,0.0154,0.0266,0.0272,0.0386,0.0413,0.0449,0.0448,0.0548,0.0553,0.0724,0.049,0.049,0.049,0.0489,0,-0.024,-0.0269,-0.028,-0.0303,-0.0341,-0.0304,-0.0317,-0.0286,-0.024,-0.0239,-0.0127,-0.0103,0.0059,0.0145,0.0248,0.0356,0.0374,0.0443,0.0463,0.0521,0.0523,0.07,0.0755,0.0492,0.0491,0.0491,0.0491,0,-0.0293,-0.0303,-0.0352,-0.0367,-0.0373,-0.0397,-0.039,-0.04,-0.0337,-0.0331,-0.0314,-0.0187,-0.0075,0.0077,0.0238,0.0323,0.053,0.0469,0.0514,0.0537,0.0703,0.0749,0.0911,0.0999,0.052,0.052,0.052,0,-0.0322,-0.0356,-0.0409,-0.0449,-0.0457,-0.0483,-0.0508,-0.0462,-0.0471,-0.0394,-0.0405,-0.0279,-0.0213,0.0017,0.0224,0.0402,0.0535,0.0554,0.0579,0.0719,0.0787,0.083,0.0897,0.0688,0.0689,0.069,0.0691,0,-0.0376,-0.0395,-0.0439,-0.0534,-0.0579,-0.0628,-0.0652,-0.0674,-0.0625,-0.061,-0.0573,-0.0507,-0.0246,-0.0,0.0255,0.0381,0.0682,0.0574,0.0739,0.094,0.0984,0.1076,0.0628,0.0699,0.0698,0.0698,0.0697,0.0697,-0.0412,-0.046,-0.0531,-0.0618,-0.0689,-0.0773,-0.0819,-0.0835,-0.0862,-0.0819,-0.0728,-0.0592,-0.0159,0.0217,0.0369,0.0774,0.0729,0.0905,0.0951,0.0983,0.1069,0.0606,0.0678,0.0677,0.0676,0.0675,0.0675,0,-0.0464,-0.0524,-0.0613,-0.0731,-0.0842,-0.0848,-0.0922,-0.0959,-0.1012,-0.0898,-0.0842,-0.0393,0.0003,0.0431,0.0972,0.1166,0.1257,0.1276,0.1413,0.1464,0.1096,0.1107,0.125,0.125,0.125,0.125,0.125,0.1249,-0.0497,-0.0592,-0.0648,-0.0847,-0.0933,-0.1059,-0.1109,-0.114,-0.1077,-0.088,-0.0616,-0.0403,0.0254,0.1045,0.1545,0.1599,0.1796,0.1769,0.1836,0.1647,0.1618,0.1591,0.1618,0.1867,0.1867,0.2249,0.2253,0.2256]}],[{"header":{"parameterUnit":"m.s-1","parameterCategory":2,"la1":30.2991,"la2":30.254,"lo1":-89.0895,"lo2":-89.0444,"dy":0.0017,"dx":0.0017,"nx":28,"ny":28,"refTime":"2025-02-04T03:00:00:Z","depth":"2","parameterNumber":2,"parameterNumberName":"U-component_of_CURRENTS"},"data":[0,0,0,0,0,0,0,0,0,0,0,0,0,0,0,0,0,0,0,0,0,0,0,0,0,0,0,0,0,0,0,0,0,0,0,0,0,0,0,0,0,0,0,0,0,0,0,0,0,0,0,0,0,0,0,0,0,0,-0.2231,-0.2232,0,-0.2294,-0.2294,-0.2295,-0.2267,-0.2266,-0.2265,-0.2264,-0.2224,-0.2224,-0.2224,0,0,0,0,0,0,0,0,0,0,0,0,0,-0.2075,-0.2078,-0.2231,-0.2232,-0.2234,-0.2294,-0.2294,-0.2295,-0.2267,-0.2266,-0.2265,-0.2264,-0.2224,-0.2224,-0.2224,0,0,0,0,0,0,0,0,0,0,0,0,0,-0.2136,-0.2079,-0.2231,-0.2232,-0.2233,-0.2294,-0.2294,-0.2295,-0.2268,-0.2266,-0.2265,-0.2263,-0.2224,-0.2224,-0.2224,-0.2253,0,0,-0.2223,-0.2223,0,0,0,0,0,0,0,0,-0.2132,-0.2141,-0.223,-0.2232,-0.2233,-0.2276,-0.2225,-0.2278,-0.2268,-0.2248,-0.2264,-0.2262,-0.2237,-0.2236,-0.2244,-0.2251,-0.2249,-0.2223,-0.2223,-0.2223,-0.2223,0,0,0,0,0,0,0,-0.2128,-0.2138,-0.225,-0.2232,-0.2234,-0.2226,-0.2232,-0.2235,-0.2244,-0.225,-0.2249,-0.2266,-0.2236,-0.2244,-0.2243,-0.2249,-0.2223,-0.2223,-0.2223,-0.2223,-0.2262,-0.2263,0,0,0,0,0,0,-0.2135,-0.2134,-0.2248,-0.2252,-0.2185,-0.223,-0.2237,-0.2259,-0.2246,-0.2245,-0.2268,-0.2265,-0.2246,-0.2243,-0.2241,-0.2255,-0.2223,-0.2223,-0.2223,-0.2261,-0.2262,-0.2263,0,0,0,0,0,0,-0.2132,-0.2145,-0.2246,-0.2199,-0.2212,-0.2235,-0.226,-0.2261,-0.2262,-0.2262,-0.2257,-0.2267,-0.2244,-0.2241,-0.2245,-0.2254,-0.2223,-0.2223,-0.2259,-0.2261,-0.2263,-0.2296,0,0,0,0,0,0,-0.2127,-0.2143,-0.215,-0.22,-0.2215,-0.2282,-0.2262,-0.2264,-0.2279,-0.2275,-0.226,-0.2255,-0.2243,-0.2245,-0.2244,-0.2253,-0.2223,-0.2258,-0.226,-0.2262,-0.2293,-0.2298,-0.2303,0,0,0,0,0,-0.2121,-0.2145,-0.215,-0.2164,-0.2228,-0.2284,-0.229,-0.2296,-0.228,-0.2288,-0.2277,-0.2255,-0.2258,-0.2246,-0.2245,-0.2254,-0.2257,-0.226,-0.2262,-0.2291,-0.2297,-0.2303,0,0,0,0,0,0,-0.2079,-0.2147,-0.2153,-0.2194,-0.2235,-0.2281,-0.229,-0.2298,-0.2299,-0.2286,-0.2271,-0.2267,-0.2273,-0.2266,-0.2253,-0.2273,-0.2254,-0.2256,-0.2276,-0.2282,-0.2287,-0.2285,-0.2222,0,0,0,0,0,-0.2077,-0.2108,-0.2171,-0.2199,-0.222,-0.2252,-0.2271,-0.2284,-0.2301,-0.2299,-0.2292,-0.2284,-0.2288,-0.2284,-0.2285,-0.2299,-0.2284,-0.2304,-0.2309,-0.2313,-0.2313,-0.2308,-0.2312,-0.2272,-0.2272,-0.2272,0,0,-0.2068,-0.2109,-0.2126,-0.2192,-0.2217,-0.2259,-0.2257,-0.2294,-0.2317,-0.2295,-0.2304,-0.23,-0.2296,-0.2309,-0.2311,-0.23,-0.2318,-0.2317,-0.232,-0.2317,-0.2311,-0.2314,-0.2318,-0.2274,-0.2273,-0.2273,0,0,-0.2076,-0.2103,-0.2134,-0.2174,-0.2228,-0.2256,-0.2268,-0.2316,-0.2317,-0.2343,-0.2329,-0.2334,-0.2338,-0.234,-0.2341,-0.2376,-0.2344,-0.2374,-0.2395,-0.239,-0.2393,-0.2395,-0.2382,-0.2383,-0.2376,-0.2376,-0.2376,0,-0.2057,-0.2111,-0.2149,-0.2193,-0.2224,-0.2256,-0.2296,-0.2316,-0.2354,-0.2359,-0.2346,-0.236,-0.2355,-0.2373,-0.2385,-0.2385,-0.2372,-0.237,-0.2395,-0.2397,-0.2398,-0.2384,-0.2385,-0.2378,-0.2377,-0.2377,-0.2377,0,-0.2096,-0.2135,-0.2156,-0.222,-0.2258,-0.2298,-0.2346,-0.2366,-0.2371,-0.2389,-0.2402,-0.2402,-0.2406,-0.2412,-0.2409,-0.2424,-0.2408,-0.24,-0.2376,-0.2404,-0.2388,-0.2388,-0.238,-0.238,-0.2379,-0.2379,0,0,-0.2062,-0.2163,-0.2166,-0.2199,-0.2276,-0.2313,-0.2353,-0.24,-0.2418,-0.2433,-0.245,-0.2461,-0.2451,-0.2452,-0.2448,-0.245,-0.2454,-0.2431,-0.243,-0.2411,-0.2435,-0.2375,-0.2369,-0.2446,-0.2446,-0.2446,-0.2418,0,-0.2073,-0.2149,-0.2201,-0.2263,-0.2305,-0.2353,-0.2391,-0.2433,-0.2452,-0.2475,-0.2473,-0.2485,-0.2469,-0.247,-0.247,-0.2462,-0.2455,-0.2462,-0.2417,-0.2415,-0.2353,-0.2367,-0.2149,-0.2101,-0.2418,-0.2418,-0.2418,0,-0.2086,-0.214,-0.2202,-0.2289,-0.231,-0.2347,-0.2405,-0.2446,-0.2488,-0.2502,-0.251,-0.251,-0.2518,-0.2499,-0.2482,-0.2485,-0.2461,-0.245,-0.2448,-0.2379,-0.2355,-0.2125,-0.2088,-0.2417,-0.2417,-0.2417,-0.2417,0,-0.2035,-0.2134,-0.2178,-0.2211,-0.2316,-0.2337,-0.2381,-0.2438,-0.2474,-0.2508,-0.2534,-0.2533,-0.2537,-0.251,-0.2492,-0.2482,-0.2474,-0.2453,-0.2375,-0.237,-0.2168,-0.2145,-0.2435,-0.2435,-0.2435,-0.2435,-0.2435,0,-0.2026,-0.206,-0.2154,-0.2182,-0.2236,-0.2306,-0.2353,-0.2401,-0.2463,-0.2514,-0.253,-0.2562,-0.254,-0.2539,-0.2504,-0.2441,-0.2476,-0.2376,-0.2359,-0.2175,-0.2154,-0.2416,-0.2414,-0.2434,-0.2434,-0.2435,-0.2435,0,-0.1964,-0.2028,-0.2087,-0.2184,-0.2215,-0.2245,-0.2346,-0.2385,-0.2445,-0.2511,-0.2524,-0.2578,-0.2571,-0.255,-0.2519,-0.245,-0.2403,-0.2373,-0.2159,-0.2117,-0.2294,-0.2294,-0.2258,-0.2256,-0.2254,-0.2252,-0.2251,0,-0.1945,-0.1965,-0.2068,-0.2106,-0.2147,-0.2209,-0.2262,-0.2356,-0.2408,-0.2524,-0.2554,-0.2581,-0.2566,-0.2494,-0.2374,-0.2271,-0.2378,-0.2043,-0.1982,-0.2288,-0.2276,-0.2279,-0.2282,-0.1724,-0.1718,-0.1713,-0.171,0,-0.1897,-0.1922,-0.197,-0.2046,-0.2103,-0.218,-0.2258,-0.2302,-0.2422,-0.2445,-0.2495,-0.2483,-0.2429,-0.2217,-0.2108,-0.2023,-0.2036,-0.1947,-0.231,-0.1817,-0.1785,-0.1774,-0.1793,-0.1669,-0.1673,-0.1676,-0.1678,-0.168,-0.1842,-0.1855,-0.1909,-0.1966,-0.2049,-0.2118,-0.2121,-0.2197,-0.2225,-0.2197,-0.2296,-0.2174,-0.2123,-0.1815,-0.1727,-0.1656,-0.178,-0.1677,-0.169,-0.1708,-0.1666,-0.1634,-0.148,-0.1483,-0.1486,-0.1488,-0.149,0,-0.1756,-0.1774,-0.183,-0.1889,-0.1931,-0.2011,-0.2093,-0.2004,-0.1952,-0.1971,-0.1879,-0.1602,-0.145,-0.1482,-0.1288,-0.1231,-0.1195,-0.1202,-0.1157,-0.1196,-0.1231,-0.1165,-0.0846,-0.0845,-0.0844,-0.0843,0,0,-0.1709,-0.1705,-0.1726,-0.1741,-0.1788,-0.1774,-0.1785,-0.1619,-0.1571,-0.14,-0.1331,-0.1278,-0.1396,-0.1098,-0.102,-0.0941,-0.1064,-0.0881,-0.1385,-0.1369,-0.1403,-0.1477,-0.1416,0,0,0,0,0]},{"header":{"parameterUnit":"m.s-1","parameterCategory":2,"la1":30.2991,"la2":30.254,"lo1":-89.0895,"lo2":-89.0444,"dy":0.0017,"dx":0.0017,"nx":28,"ny":28,"refTime":"2025-02-04T03:00:00:Z","depth":"2","parameterNumber":3,"parameterNumberName":"V-component_of_CURRENTS"},"data":[0,0,0,0,0,0,0,0,0,0,0,0,0,0,0,0,0,0,0,0,0,0,0,0,0,0,0,0,0,0,0,0,0,0,0,0,0,0,0,0,0,0,0,0,0,0,0,0,0,0,0,0,0,0,0,0,0,0,-0.0096,-0.0096,0,-0.0019,-0.0018,-0.0017,0.0033,0.0033,0.0033,0.0034,0.0119,0.0121,0.0124,0,0,0,0,0,0,0,0,0,0,0,0,0,-0.0109,-0.0109,-0.0096,-0.0096,-0.0095,-0.0019,-0.0018,-0.0016,0.0033,0.0033,0.0034,0.0034,0.0119,0.0121,0.0124,0,0,0,0,0,0,0,0,0,0,0,0,0,-0.0073,-0.0109,-0.0096,-0.0063,-0.0059,-0.0019,-0.0018,-0.0016,0.0033,0.0033,0.0034,0.0034,0.0118,0.0121,0.0124,0.0142,0,0,0.0134,0.0136,0,0,0,0,0,0,0,0,-0.0075,-0.0072,-0.0068,-0.0065,-0.0061,-0.0004,0.0009,0.0036,0.0033,0.0001,0.0034,0.0034,0.0077,0.0084,0.0101,0.0146,0.015,0.0135,0.0137,0.0138,0.0139,0,0,0,0,0,0,0,-0.0077,-0.0074,-0.0063,-0.0068,-0.0063,-0.002,-0.0015,0.0015,0.0039,0.0004,0.0007,0.0011,0.0079,0.0098,0.0104,0.0151,0.0135,0.0137,0.0139,0.0141,0.025,0.0251,0,0,0,0,0,0,-0.0097,-0.0077,-0.0066,-0.0061,-0.007,-0.002,-0.0015,-0.0021,0.0039,0.0047,0.0011,0.0013,0.0092,0.01,0.0107,0.0142,0.0138,0.0141,0.0143,0.0249,0.025,0.0251,0,0,0,0,0,0,-0.0098,-0.0097,-0.0069,-0.0068,-0.0062,-0.0021,-0.0027,-0.0019,-0.0003,0.0044,0.0053,0.0018,0.0093,0.0102,0.0138,0.0145,0.0143,0.0146,0.0248,0.025,0.0251,0.0205,0,0,0,0,0,0,-0.0099,-0.0098,-0.0107,-0.0071,-0.0063,-0.0054,-0.0028,-0.0018,-0.0002,0.0002,0.0053,0.0061,0.0094,0.0133,0.0141,0.0149,0.0148,0.0247,0.0249,0.025,0.0205,0.0205,0.0204,0,0,0,0,0,-0.01,-0.0115,-0.0108,-0.0106,-0.0078,-0.0055,-0.0047,-0.0015,-0.0002,0.0001,0.0043,0.006,0.015,0.0136,0.0146,0.0155,0.0246,0.0248,0.025,0.0206,0.0205,0.0204,0,0,0,0,0,0,-0.0118,-0.011,-0.0102,-0.0112,-0.009,-0.0048,-0.0042,-0.0021,0.0016,0.002,0.0067,0.0078,0.0113,0.0143,0.0126,0.0195,0.0203,0.0207,0.0166,0.0165,0.0165,0.0159,0.0151,0,0,0,0,0,-0.013,-0.0142,-0.0119,-0.0126,-0.012,-0.0082,-0.0069,-0.0048,-0.0013,0.0003,0.0039,0.0086,0.0131,0.0153,0.0191,0.0224,0.0256,0.024,0.0239,0.0238,0.0243,0.0309,0.0315,0.0258,0.0258,0.0258,0,0,-0.0138,-0.0135,-0.0141,-0.0131,-0.0111,-0.0105,-0.0073,-0.006,-0.0042,0.0006,0.0038,0.0079,0.0138,0.0178,0.0197,0.0203,0.0267,0.0241,0.0239,0.0245,0.0312,0.0317,0.0322,0.0259,0.0259,0.0259,0,0,-0.0162,-0.016,-0.0179,-0.0166,-0.0148,-0.0124,-0.0125,-0.0089,-0.0061,-0.0028,0.0018,0.0067,0.0122,0.0176,0.0209,0.023,0.0258,0.0238,0.0233,0.0296,0.0301,0.0306,0.0326,0.0333,0.0241,0.0241,0.0241,0,-0.0171,-0.0195,-0.0178,-0.0187,-0.0179,-0.0138,-0.0146,-0.0109,-0.0062,-0.0032,-0.0026,0.0088,0.0128,0.0203,0.0209,0.0228,0.0252,0.0225,0.0294,0.0299,0.0305,0.0325,0.0333,0.0239,0.0239,0.0239,0.024,0,-0.0209,-0.0223,-0.0231,-0.0233,-0.0218,-0.0219,-0.0174,-0.0146,-0.0111,-0.0069,0.0004,0.0072,0.014,0.0163,0.019,0.0257,0.0253,0.0279,0.0289,0.0308,0.0327,0.0337,0.0236,0.0237,0.0237,0.0238,0,0,-0.0239,-0.0259,-0.026,-0.0272,-0.0246,-0.024,-0.0203,-0.0157,-0.0124,-0.0062,-0.0012,0.0077,0.0115,0.0157,0.0207,0.0267,0.0313,0.0281,0.0285,0.0288,0.0421,0.045,0.0463,0.0347,0.0349,0.0351,0.0407,0,-0.0274,-0.0321,-0.0305,-0.0325,-0.0345,-0.0288,-0.0257,-0.0201,-0.014,-0.0081,0.0017,0.0077,0.0114,0.0144,0.0211,0.0295,0.0341,0.0294,0.0414,0.0417,0.0432,0.0477,0.0351,0.0395,0.0417,0.0419,0.042,0,-0.0315,-0.0345,-0.0386,-0.0383,-0.0382,-0.0373,-0.0313,-0.0278,-0.0171,-0.0121,-0.0032,0.0039,0.0141,0.0164,0.0317,0.0282,0.034,0.0403,0.0408,0.0462,0.0467,0.0389,0.0412,0.0436,0.0435,0.0433,0.0432,0,-0.0365,-0.0391,-0.0432,-0.0434,-0.0422,-0.0406,-0.0383,-0.0292,-0.026,-0.0146,-0.0111,0.0027,0.0089,0.0204,0.0332,0.0322,0.0492,0.0498,0.0577,0.0577,0.0511,0.0503,0.0597,0.0597,0.0597,0.0597,0.0597,0,-0.0412,-0.0439,-0.0462,-0.0485,-0.0509,-0.0466,-0.0452,-0.0395,-0.0316,-0.0279,-0.0147,-0.0081,0.0104,0.0225,0.0329,0.0488,0.0492,0.0588,0.0612,0.0489,0.048,0.0553,0.0548,0.0599,0.0599,0.0598,0.0598,0,-0.0454,-0.0474,-0.0526,-0.0538,-0.054,-0.0555,-0.053,-0.0517,-0.0424,-0.037,-0.034,-0.016,0.0019,0.0195,0.0394,0.0483,0.0632,0.0677,0.0505,0.051,0.0663,0.0654,0.0773,0.0775,0.0776,0.0778,0.0779,0,-0.0482,-0.0517,-0.058,-0.0622,-0.0631,-0.0646,-0.0657,-0.0585,-0.057,-0.0414,-0.04,-0.02,-0.0064,0.0243,0.042,0.0613,0.0675,0.0646,0.063,0.0679,0.069,0.0678,0.0667,0.0498,0.0497,0.0496,0.0495,0,-0.053,-0.0556,-0.0609,-0.071,-0.075,-0.0787,-0.0791,-0.0795,-0.0695,-0.063,-0.0498,-0.0368,-0.007,0.0131,0.0409,0.0513,0.0614,0.0635,0.0745,0.049,0.043,0.0437,0.0434,0.0486,0.0486,0.0487,0.0488,0.0488,-0.0562,-0.0621,-0.0707,-0.0799,-0.0861,-0.0921,-0.0945,-0.0923,-0.0896,-0.0776,-0.0641,-0.0436,-0.0202,0.0156,0.0348,0.0549,0.0567,0.0618,0.0616,0.0617,0.0592,0.0541,0.0609,0.061,0.0612,0.0613,0.0614,0,-0.0605,-0.0686,-0.0788,-0.0907,-0.1007,-0.1003,-0.1033,-0.1022,-0.0994,-0.0849,-0.0728,-0.0489,-0.0261,0.0052,0.0301,0.047,0.0429,0.055,0.0443,0.0449,0.0455,0.042,0.0392,0.0393,0.0394,0.0394,0,0,-0.0633,-0.0749,-0.0821,-0.1015,-0.1095,-0.1183,-0.1201,-0.1126,-0.1023,-0.0884,-0.0729,-0.0599,-0.0247,-0.0101,0.0096,0.0267,0.0325,0.0283,0.0425,0.0275,0.028,0.0442,0.0389,0,0,0,0,0]}],[{"header":{"parameterUnit":"m.s-1","parameterCategory":2,"la1":30.2991,"la2":30.254,"lo1":-89.0895,"lo2":-89.0444,"dy":0.0017,"dx":0.0017,"nx":28,"ny":28,"refTime":"2025-02-04T03:00:00:Z","depth":"4","parameterNumber":2,"parameterNumberName":"U-component_of_CURRENTS"},"data":[0,0,0,0,0,0,0,0,0,0,0,0,0,0,0,0,0,0,0,0,0,0,0,0,0,0,0,0,0,0,0,0,0,0,0,0,0,0,0,0,0,0,0,0,0,0,0,0,0,0,0,0,0,0,0,0,0,0,-0.0967,-0.0967,0,-0.1032,-0.1033,-0.1034,-0.1049,-0.1048,-0.1047,-0.1046,-0.1112,-0.1114,-0.1117,0,0,0,0,0,0,0,0,0,0,0,0,0,-0.0911,-0.0912,-0.0967,-0.0967,-0.0968,-0.1032,-0.1033,-0.1035,-0.1049,-0.1048,-0.1047,-0.1046,-0.1111,-0.1114,-0.1117,0,0,0,0,0,0,0,0,0,0,0,0,0,-0.0957,-0.0912,-0.0967,-0.0978,-0.0979,-0.1031,-0.1033,-0.1035,-0.105,-0.1048,-0.1047,-0.1045,-0.111,-0.1114,-0.1118,-0.1174,0,0,-0.113,-0.1132,0,0,0,0,0,0,0,0,-0.0955,-0.096,-0.0976,-0.0977,-0.0979,-0.1025,-0.1037,-0.1079,-0.105,-0.103,-0.1046,-0.1044,-0.108,-0.1086,-0.1111,-0.1177,-0.118,-0.113,-0.1133,-0.1135,-0.1136,0,0,0,0,0,0,0,-0.0951,-0.0958,-0.0999,-0.0976,-0.0978,-0.0998,-0.1003,-0.1046,-0.1068,-0.1031,-0.1031,-0.1029,-0.1081,-0.1107,-0.1112,-0.1181,-0.113,-0.1134,-0.1136,-0.1138,-0.1333,-0.1336,0,0,0,0,0,0,-0.0929,-0.0955,-0.0997,-0.1001,-0.0955,-0.0999,-0.1005,-0.1017,-0.1067,-0.1072,-0.103,-0.1029,-0.1101,-0.1108,-0.1115,-0.1192,-0.1135,-0.1138,-0.1141,-0.1331,-0.1334,-0.1337,0,0,0,0,0,0,-0.0928,-0.0933,-0.0994,-0.0973,-0.0981,-0.1001,-0.1015,-0.1019,-0.1063,-0.1065,-0.107,-0.1069,-0.11,-0.1109,-0.1172,-0.1194,-0.114,-0.1144,-0.1327,-0.1332,-0.1335,-0.1342,0,0,0,0,0,0,-0.0927,-0.0933,-0.0948,-0.0972,-0.0981,-0.1023,-0.1016,-0.1021,-0.1059,-0.1059,-0.11,-0.1103,-0.1099,-0.1166,-0.1176,-0.1199,-0.1147,-0.1324,-0.1329,-0.1334,-0.1338,-0.1345,-0.1352,0,0,0,0,0,-0.0925,-0.0941,-0.0948,-0.0954,-0.0997,-0.1023,-0.1032,-0.1044,-0.1062,-0.108,-0.112,-0.1103,-0.1205,-0.1172,-0.1183,-0.1207,-0.1321,-0.1328,-0.1334,-0.1335,-0.1344,-0.1352,0,0,0,0,0,0,-0.0916,-0.0944,-0.0953,-0.0975,-0.0996,-0.1023,-0.1043,-0.1066,-0.1118,-0.1119,-0.1142,-0.1149,-0.1213,-0.1226,-0.1188,-0.1284,-0.1261,-0.1269,-0.1258,-0.1267,-0.1274,-0.1298,-0.115,0,0,0,0,0,-0.0923,-0.0954,-0.0969,-0.0994,-0.1002,-0.1037,-0.1057,-0.1062,-0.1099,-0.1121,-0.1164,-0.1207,-0.1249,-0.1268,-0.1308,-0.1365,-0.1372,-0.1391,-0.1398,-0.1403,-0.1435,-0.1519,-0.1536,-0.1357,-0.1357,-0.1357,0,0,-0.0926,-0.0948,-0.0964,-0.0996,-0.1019,-0.1037,-0.1047,-0.1071,-0.1108,-0.1121,-0.1208,-0.124,-0.1275,-0.133,-0.1359,-0.1339,-0.1438,-0.1411,-0.1415,-0.1445,-0.1527,-0.1545,-0.156,-0.1361,-0.1361,-0.136,0,0,-0.0938,-0.0969,-0.099,-0.1012,-0.1035,-0.1051,-0.1064,-0.1108,-0.115,-0.1229,-0.1245,-0.1305,-0.1382,-0.1404,-0.1426,-0.1509,-0.1481,-0.1512,-0.1555,-0.1635,-0.165,-0.1664,-0.1595,-0.1603,-0.1505,-0.1505,-0.1505,0,-0.0942,-0.0968,-0.0999,-0.102,-0.1036,-0.1062,-0.1076,-0.1129,-0.1197,-0.123,-0.1257,-0.1388,-0.1425,-0.1478,-0.1515,-0.1524,-0.1519,-0.1506,-0.1642,-0.1657,-0.167,-0.1597,-0.1606,-0.1506,-0.1506,-0.1506,-0.1506,0,-0.095,-0.0984,-0.1,-0.1039,-0.1062,-0.1079,-0.1125,-0.116,-0.1223,-0.1279,-0.1377,-0.145,-0.1528,-0.1541,-0.1565,-0.1665,-0.1605,-0.1642,-0.161,-0.1688,-0.1605,-0.1614,-0.1508,-0.1507,-0.1507,-0.1507,0,0,-0.0936,-0.0993,-0.1004,-0.1018,-0.1069,-0.1079,-0.1131,-0.1178,-0.1227,-0.1324,-0.141,-0.1519,-0.158,-0.1615,-0.1643,-0.1717,-0.179,-0.1733,-0.1737,-0.1642,-0.1864,-0.1677,-0.1666,-0.1857,-0.1861,-0.1864,-0.1727,0,-0.0936,-0.0967,-0.1002,-0.1037,-0.105,-0.1079,-0.1142,-0.1189,-0.1267,-0.1364,-0.145,-0.1568,-0.1602,-0.1659,-0.1743,-0.1845,-0.1832,-0.1818,-0.1824,-0.1822,-0.1632,-0.168,-0.1878,-0.1733,-0.1735,-0.1737,-0.1738,0,-0.0931,-0.0953,-0.0981,-0.1033,-0.1044,-0.1072,-0.1126,-0.1194,-0.1309,-0.1383,-0.1487,-0.1585,-0.1739,-0.1759,-0.1913,-0.1909,-0.1882,-0.1904,-0.19,-0.1748,-0.1657,-0.167,-0.1753,-0.1752,-0.1751,-0.175,-0.1749,0,-0.0885,-0.094,-0.0959,-0.0978,-0.104,-0.1054,-0.1097,-0.1194,-0.1265,-0.1419,-0.1459,-0.1662,-0.1789,-0.1868,-0.1912,-0.1961,-0.1998,-0.2067,-0.1801,-0.178,-0.1982,-0.1971,-0.2079,-0.2079,-0.208,-0.208,-0.208,0,-0.0864,-0.0883,-0.0942,-0.0946,-0.098,-0.1046,-0.1109,-0.1165,-0.1292,-0.1328,-0.1494,-0.1516,-0.185,-0.1884,-0.1905,-0.1858,-0.1981,-0.1811,-0.177,-0.197,-0.1961,-0.198,-0.197,-0.2075,-0.2076,-0.2077,-0.2078,0,-0.0817,-0.0858,-0.0878,-0.0936,-0.0959,-0.0991,-0.109,-0.1132,-0.1246,-0.1283,-0.1335,-0.1523,-0.1604,-0.1712,-0.185,-0.1831,-0.1799,-0.1671,-0.175,-0.1714,-0.1522,-0.1515,-0.1502,-0.1495,-0.1489,-0.1484,-0.148,0,-0.0793,-0.0803,-0.0855,-0.0862,-0.0889,-0.0949,-0.098,-0.1109,-0.1142,-0.1184,-0.1175,-0.1296,-0.1364,-0.1387,-0.1552,-0.1542,-0.1496,-0.1457,-0.1647,-0.152,-0.1482,-0.1484,-0.1484,-0.1471,-0.147,-0.1468,-0.1466,0,-0.0746,-0.0775,-0.0784,-0.0794,-0.0814,-0.0842,-0.0885,-0.0898,-0.0979,-0.1064,-0.1021,-0.1058,-0.1101,-0.1298,-0.1262,-0.1234,-0.1558,-0.1398,-0.1414,-0.1593,-0.1482,-0.145,-0.1458,-0.1446,-0.1449,-0.1451,-0.1452,0,-0.0713,-0.0707,-0.0716,-0.072,-0.0731,-0.0704,-0.0748,-0.0754,-0.0814,-0.0867,-0.0823,-0.0866,-0.104,-0.1107,-0.1034,-0.1075,-0.1146,-0.1185,-0.1215,-0.1238,-0.1234,-0.1059,-0.0861,0,0,0,0,0,-0.0679,-0.0654,-0.0637,-0.0615,-0.0613,-0.0622,-0.0661,-0.0709,-0.0749,-0.0692,-0.0778,-0.0754,-0.0792,-0.0863,-0.0874,-0.0949,-0.1148,-0.0957,-0.1206,-0.1334,-0.1357,-0.1386,0,0,0,0,0,0,-0.0647,-0.0634,-0.0608,-0.052,-0.0486,-0.0474,-0.0491,-0.052,-0.0537,-0.059,-0.0654,-0.0705,-0.0806,-0.0775,-0.0856,-0.0874,-0.1018,-0.1023,-0.1021,-0.132,-0.1342,-0.136,-0.1399,0,0,0,0,0]},{"header":{"parameterUnit":"m.s-1","parameterCategory":2,"la1":30.2991,"la2":30.254,"lo1":-89.0895,"lo2":-89.0444,"dy":0.0017,"dx":0.0017,"nx":28,"ny":28,"refTime":"2025-02-04T03:00:00:Z","depth":"4","parameterNumber":3,"parameterNumberName":"V-component_of_CURRENTS"},"data":[0,0,0,0,0,0,0,0,0,0,0,0,0,0,0,0,0,0,0,0,0,0,0,0,0,0,0,0,0,0,0,0,0,0,0,0,0,0,0,0,0,0,0,0,0,0,0,0,0,0,0,0,0,0,0,0,0,0,-0.0299,-0.0299,0,-0.0292,-0.0292,-0.0291,-0.0266,-0.0265,-0.0265,-0.0265,-0.0251,-0.0251,-0.0251,0,0,0,0,0,0,0,0,0,0,0,0,0,-0.0272,-0.0273,-0.0299,-0.0299,-0.0299,-0.0292,-0.0292,-0.0291,-0.0266,-0.0265,-0.0265,-0.0265,-0.0251,-0.0251,-0.0251,0,0,0,0,0,0,0,0,0,0,0,0,0,-0.0274,-0.0273,-0.0299,-0.0288,-0.0287,-0.0292,-0.0292,-0.0291,-0.0266,-0.0265,-0.0265,-0.0264,-0.0251,-0.0251,-0.0251,-0.0259,0,0,-0.025,-0.025,0,0,0,0,0,0,0,0,-0.0274,-0.0274,-0.0289,-0.0289,-0.0288,-0.0282,-0.0277,-0.0281,-0.0266,-0.0271,-0.0265,-0.0264,-0.0263,-0.0262,-0.0257,-0.0259,-0.0258,-0.025,-0.025,-0.025,-0.025,0,0,0,0,0,0,0,-0.0274,-0.0274,-0.0293,-0.029,-0.0289,-0.0278,-0.0277,-0.0278,-0.0267,-0.027,-0.0269,-0.0273,-0.0262,-0.0258,-0.0257,-0.0258,-0.025,-0.025,-0.025,-0.025,-0.0275,-0.0276,0,0,0,0,0,0,-0.0282,-0.0275,-0.0293,-0.0293,-0.0283,-0.0279,-0.0278,-0.0282,-0.0267,-0.0265,-0.0274,-0.0272,-0.0258,-0.0257,-0.0256,-0.0303,-0.025,-0.025,-0.025,-0.0274,-0.0275,-0.0276,0,0,0,0,0,0,-0.0282,-0.0284,-0.0294,-0.0286,-0.0287,-0.028,-0.0284,-0.0282,-0.0279,-0.027,-0.0268,-0.0274,-0.0258,-0.0256,-0.0269,-0.0301,-0.025,-0.025,-0.0274,-0.0275,-0.0276,-0.0373,0,0,0,0,0,0,-0.0281,-0.0284,-0.0291,-0.0287,-0.0288,-0.0305,-0.0285,-0.0282,-0.0284,-0.0281,-0.027,-0.0268,-0.0257,-0.027,-0.0269,-0.03,-0.025,-0.0273,-0.0274,-0.0275,-0.0369,-0.0377,-0.0384,0,0,0,0,0,-0.028,-0.0292,-0.0291,-0.0294,-0.0297,-0.0306,-0.0305,-0.0296,-0.0284,-0.029,-0.0286,-0.0268,-0.0278,-0.0271,-0.027,-0.0301,-0.0272,-0.0274,-0.0275,-0.0365,-0.0375,-0.0384,0,0,0,0,0,0,-0.0285,-0.0291,-0.029,-0.0303,-0.0309,-0.0303,-0.031,-0.0301,-0.03,-0.0301,-0.0283,-0.0282,-0.0301,-0.0284,-0.0277,-0.0309,-0.027,-0.0271,-0.0338,-0.0348,-0.0355,-0.0356,-0.025,0,0,0,0,0,-0.0291,-0.0302,-0.0305,-0.0318,-0.0322,-0.0316,-0.0318,-0.0316,-0.0315,-0.0313,-0.0308,-0.0303,-0.0307,-0.0314,-0.0309,-0.0334,-0.0294,-0.0349,-0.0357,-0.0364,-0.0362,-0.0323,-0.0327,-0.0282,-0.0282,-0.0281,0,0,-0.0298,-0.0303,-0.031,-0.0321,-0.0322,-0.0344,-0.0315,-0.0328,-0.035,-0.0314,-0.034,-0.0329,-0.0317,-0.0344,-0.0351,-0.0336,-0.0358,-0.0366,-0.0372,-0.0366,-0.0325,-0.0329,-0.0333,-0.0283,-0.0282,-0.0282,0,0,-0.032,-0.0322,-0.0339,-0.035,-0.0363,-0.0366,-0.0372,-0.0374,-0.0377,-0.0401,-0.0383,-0.0396,-0.0395,-0.0405,-0.0406,-0.0453,-0.0396,-0.0442,-0.0494,-0.0457,-0.046,-0.0463,-0.0432,-0.0431,-0.0453,-0.0453,-0.0454,0,-0.0326,-0.0352,-0.0346,-0.0369,-0.0389,-0.0379,-0.041,-0.0417,-0.0426,-0.0439,-0.0421,-0.0436,-0.0429,-0.047,-0.0483,-0.0475,-0.0431,-0.0466,-0.0468,-0.0469,-0.047,-0.0437,-0.0435,-0.0458,-0.0458,-0.0457,-0.0457,0,-0.0363,-0.0388,-0.04,-0.0431,-0.045,-0.0475,-0.0491,-0.0508,-0.051,-0.0517,-0.0547,-0.0539,-0.0545,-0.0551,-0.0532,-0.0547,-0.0507,-0.0479,-0.0447,-0.0481,-0.0444,-0.044,-0.0465,-0.0464,-0.0462,-0.0461,0,0,-0.0361,-0.0415,-0.042,-0.0452,-0.0487,-0.0508,-0.0552,-0.0588,-0.0621,-0.0625,-0.066,-0.0673,-0.0654,-0.0652,-0.0636,-0.0613,-0.0593,-0.0547,-0.0543,-0.0523,-0.05,-0.0454,-0.0445,-0.055,-0.055,-0.0549,-0.0477,0,-0.039,-0.0449,-0.047,-0.0538,-0.0572,-0.0592,-0.0636,-0.067,-0.0689,-0.0719,-0.0716,-0.0739,-0.0698,-0.0705,-0.0676,-0.0596,-0.0581,-0.0614,-0.0464,-0.046,-0.042,-0.0439,-0.0548,-0.0474,-0.0472,-0.0472,-0.0471,0,-0.0418,-0.0456,-0.0525,-0.06,-0.0617,-0.0659,-0.073,-0.0769,-0.0808,-0.0818,-0.0834,-0.0819,-0.0801,-0.0759,-0.065,-0.066,-0.0592,-0.0535,-0.053,-0.0448,-0.0406,-0.0427,-0.0462,-0.0463,-0.0464,-0.0464,-0.0465,0,-0.0419,-0.0496,-0.0555,-0.0581,-0.066,-0.0701,-0.0743,-0.08,-0.0841,-0.088,-0.0899,-0.0873,-0.0857,-0.0755,-0.064,-0.0629,-0.0508,-0.048,-0.0392,-0.0388,-0.0407,-0.0405,-0.0425,-0.0425,-0.0425,-0.0425,-0.0426,0,-0.0439,-0.0487,-0.0565,-0.0595,-0.0676,-0.0724,-0.0806,-0.0843,-0.0902,-0.0932,-0.0943,-0.0941,-0.0847,-0.0772,-0.0655,-0.0499,-0.0516,-0.0398,-0.0364,-0.0452,-0.0455,-0.0405,-0.0403,-0.0423,-0.0423,-0.0424,-0.0424,0,-0.0434,-0.0482,-0.0556,-0.0645,-0.068,-0.0737,-0.084,-0.0894,-0.0941,-0.0975,-0.0985,-0.0978,-0.0856,-0.0773,-0.0616,-0.0521,-0.0384,-0.0343,-0.0457,-0.043,-0.0284,-0.0289,-0.0212,-0.021,-0.0208,-0.0206,-0.0205,0,-0.0441,-0.0477,-0.058,-0.063,-0.0675,-0.0765,-0.0827,-0.0903,-0.0946,-0.0967,-0.097,-0.0919,-0.0878,-0.0647,-0.0541,-0.0355,-0.0334,-0.0281,-0.0272,-0.0287,-0.0262,-0.0269,-0.0276,-0.0202,-0.0201,-0.0201,-0.02,0,-0.0451,-0.0486,-0.0541,-0.0632,-0.0708,-0.0797,-0.0875,-0.0898,-0.095,-0.0994,-0.0935,-0.0849,-0.0738,-0.0595,-0.0491,-0.0345,-0.031,-0.026,-0.0263,-0.0254,-0.0274,-0.0252,-0.0261,-0.0194,-0.0195,-0.0195,-0.0196,0,-0.0453,-0.0491,-0.0557,-0.0636,-0.073,-0.0795,-0.0841,-0.0872,-0.0916,-0.0923,-0.088,-0.0789,-0.0754,-0.0588,-0.0456,-0.0343,-0.0295,-0.0249,-0.0251,-0.0257,-0.0291,-0.0325,-0.0229,0,0,0,0,0,-0.0456,-0.0492,-0.0561,-0.0647,-0.0731,-0.0787,-0.0863,-0.0898,-0.0919,-0.0869,-0.0879,-0.0763,-0.0585,-0.0534,-0.0405,-0.0406,-0.0277,-0.0249,-0.0225,-0.0157,-0.0165,-0.0193,0,0,0,0,0,0,-0.0461,-0.0517,-0.0549,-0.0635,-0.069,-0.0785,-0.0829,-0.0845,-0.0826,-0.0825,-0.0747,-0.0714,-0.0566,-0.0655,-0.0398,-0.0368,-0.0328,-0.0186,-0.0182,-0.0153,-0.016,-0.0166,-0.0197,0,0,0,0,0]}]]